FLTSATCOM F5

operational
NORAD ID: 12635 Int'l Des: 1981-073 Owner: USNESC/AFSD Country: US
HEOCIRCULAR

About FLTSATCOM F5

Description loading...

Live Position

Loading 3D Globe...

Upcoming Passes

Altitude History

Altitude vs Time

uPlot chart will show altitude changes over time

Two-Line Element Set

1 12635U 81073A 26062.42822443 -.00000206 00000-0 00000-0 0 9990
2 12635 14.0967 308.8080 0005460 169.2960 15.3115 0.98607469132024
Epoch: Mar 3, 2026 • Age: 27 hours

Current Status

Altitude 36261.4 km
Velocity 3.06 km/s
Sub-Earth Point 13.44°N, 173.33°E
Launch Date Aug 6, 1981
Age 44.5 years
Type other

Technical Details

Classification Payload
Mass 942.00 kg
Dry Mass 822.00 kg
Total Mass 1876.00 kg
Length 1.30 m
Diameter 2.40 m
Span 13.20 m
Shape Hex Cyl + Dish + 2 Pan
Manufacturer TRW
Bus Type FLTSATCOM
Phase Status In Orbit
Owner/State USNESC/AFSD/US

Large Constellations

Loading constellations...